Location: Eschertshofen
(49.3064°N, 11.5756°E)
Time: 05:26:47
(UTC+00:00)

Cosmos 2227 Rocket - Pass Details

Date: 18 September 2020
Orbit: 840 x 844 km, 71.0° (Epoch: 20 October)

Event Time Altitude Azimuth Distance (km) Brightness Sun altitude
Rises 23:35:07 0° 335° (NNW) 3,407 6.0 -39.0°
Reaches altitude 10° 23:38:12 10° 351° (N) 2,469 5.3 -38.9°
Maximum altitude 23:42:27 21° 40° (NE) 1,802 4.3 -38.8°
Enters shadow 23:43:11 21° 51° (NE) 1,826 4.3 -38.7°
